GW4712 Weather Reports


Display with metric or nautical units.
time (UTC)temp
F
wind
direction
speed
MPH
gust
MPH
rain 1hr
in
rain 24hr
in
rain mn
in
humidity
%
barometer
mb
20260831050627 71 189 0.0 0.0 0.00 0.00 0.00 99 1020.7
20260831050126 71 189 0.0 0.0 0.00 0.00 0.00 99 1020.7
20260831045626 71 189 0.0 0.0 0.00 0.00 0.00 99 1020.7
20260831045121 71 189 0.0 0.0 0.00 0.00 0.00 99 1020.7
20260831044616 71 189 0.0 0.0 0.00 0.00 0.00 99 1020.9
20260831044111 71 189 0.0 0.0 0.00 0.00 0.00 99 1020.9
20260831043607 72 189 0.0 0.0 0.00 0.00 0.00 99 1020.8
20260831043102 72 189 0.0 0.0 0.00 0.00 0.00 99 1020.6
20260831042601 72 189 0.0 0.0 0.00 0.00 0.00 99 1020.7
20260831042056 72 189 0.0 0.0 0.00 0.00 0.00 99 1020.5
20260831041551 72 189 0.0 0.0 0.00 0.00 0.00 99 1020.7
20260831041051 73 189 0.0 0.0 0.00 0.00 0.00 99 1020.8
20260831040545 73 189 0.0 0.0 0.00 0.00 0.00 99 1020.8
20260831040039 73 189 0.0 0.0 0.00 0.01 0.01 99 1020.8
20260831035537 73 189 0.0 0.0 0.00 0.01 0.01 99 1020.8
20260831035032 73 189 0.0 0.0 0.00 0.01 0.01 99 1020.9
20260831034532 73 189 0.0 0.0 0.00 0.01 0.01 99 1020.8
20260831034027 73 189 0.0 0.0 0.00 0.01 0.01 99 1020.8
20260831033523 73 189 0.0 0.0 0.00 0.01 0.01 99 1020.9
20260831033018 73 190 0.0 0.0 0.00 0.01 0.01 99 1020.8
20260831032517 73 190 0.0 0.0 0.00 0.01 0.01 99 1021.3
20260831032013 73 190 0.0 0.0 0.00 0.01 0.01 99 1021.0
20260831031513 73 190 0.0 0.0 0.00 0.01 0.01 99 1021.1
20260831031012 73 190 0.0 0.0 0.00 0.01 0.01 99 1021.1
20260831030512 73 190 0.0 0.0 0.00 0.01 0.01 99 1021.4
20260831030011 73 190 0.0 0.0 0.00 0.01 0.01 99 1021.3
20260831025509 73 190 0.0 0.0 0.00 0.01 0.01 99 1021.1
20260831025005 73 190 0.0 0.0 0.00 0.01 0.01 99 1021.1
20260831024500 73 190 0.0 0.0 0.00 0.01 0.01 99 1021.1
20260831024000 73 190 0.0 0.0 0.00 0.01 0.01 99 1021.3
20260831023458 73 190 0.0 0.0 0.00 0.01 0.01 99 1021.0
20260831022953 73 190 0.0 0.0 0.00 0.01 0.01 99 1021.0
20260831022452 73 190 0.0 0.0 0.00 0.01 0.01 99 1021.0
20260831021947 73 190 0.0 0.0 0.00 0.01 0.01 99 1021.2
20260831021446 73 190 0.0 0.0 0.00 0.01 0.01 99 1021.2
20260831020942 73 190 0.0 0.0 0.00 0.01 0.01 99 1021.1
20260831020442 73 190 0.0 0.0 0.00 0.01 0.01 98 1021.2
20260831015937 73 190 0.0 0.0 0.00 0.01 0.01 98 1021.1
20260831015434 73 190 0.0 0.0 0.00 0.01 0.01 98 1020.9
20260831014933 73 190 0.0 0.0 0.00 0.01 0.01 99 1021.0
20260831014428 73 190 0.0 0.0 0.00 0.01 0.01 99 1020.9
20260831013924 73 190 0.0 0.0 0.00 0.01 0.01 98 1020.9
20260831013419 73 190 0.0 0.0 0.00 0.01 0.01 99 1021.0
20260831012914 73 190 0.0 0.0 0.00 0.01 0.01 98 1020.9
20260831012409 73 190 0.0 0.0 0.00 0.01 0.01 98 1020.8
20260831011909 74 190 0.0 0.0 0.00 0.01 0.01 98 1020.8
20260831011404 74 190 0.0 0.0 0.00 0.01 0.01 98 1020.7
20260831010900 73 190 0.0 0.0 0.00 0.01 0.01 98 1020.7
20260831010359 74 190 0.0 0.0 0.00 0.01 0.01 98 1020.5
20260831005855 74 190 0.0 0.0 0.00 0.01 0.01 98 1020.7
20260831005350 74 190 0.0 0.0 0.00 0.01 0.01 98 1020.4
20260831004845 74 190 0.0 0.0 0.00 0.01 0.01 98 1020.3
20260831004341 74 190 0.0 0.0 0.00 0.01 0.01 98 1020.3
20260831003837 74 190 0.0 0.0 0.00 0.01 0.01 98 1020.4
20260831003333 74 190 0.0 0.0 0.00 0.01 0.01 97 1020.2
20260831002832 74 190 0.0 0.0 0.00 0.01 0.01 97 1020.2
20260831002331 74 190 0.0 0.0 0.00 0.01 0.01 97 1020.2
20260831001827 74 190 0.0 0.0 0.00 0.01 0.01 97 1020.1
20260831001322 75 190 0.0 0.0 0.00 0.01 0.01 97 1020.0
20260831000820 75 190 0.0 0.0 0.00 0.01 0.01 96 1020.1
20260831000320 75 190 0.0 0.0 0.00 0.01 0.01 97 1019.8
20260830235818 75 190 0.0 0.0 0.00 0.01 0.01 96 1019.8
20260830235313 76 190 0.0 0.0 0.00 0.01 0.01 95 1019.9
20260830234808 76 190 0.0 0.0 0.00 0.01 0.01 95 1019.8
20260830234304 77 190 0.0 0.0 0.00 0.01 0.01 94 1019.9
20260830233759 77 190 0.0 0.0 0.00 0.01 0.01 93 1019.8
20260830233255 78 190 0.0 0.0 0.00 0.01 0.01 92 1019.7
20260830232750 78 190 0.0 0.0 0.00 0.01 0.01 92 1019.8
20260830232246 78 190 0.0 0.0 0.00 0.01 0.01 92 1019.6
20260830231742 79 190 0.0 0.0 0.00 0.01 0.01 90 1019.6
20260830231242 79 191 0.0 0.0 0.00 0.01 0.01 88 1019.5
20260830230737 79 190 0.0 0.0 0.00 0.01 0.01 87 1019.6
20260830230232 78 166 0.0 0.0 0.00 0.01 0.01 87 1019.4
20260830225732 78 221 0.0 0.0 0.00 0.01 0.01 89 1019.4
20260830225227 79 221 0.0 0.0 0.00 0.01 0.01 91 1019.4
20260830224726 79 226 0.0 0.0 0.00 0.01 0.01 91 1019.5
20260830224221 79 256 0.0 0.0 0.00 0.01 0.01 90 1019.4
20260830223718 79 256 0.0 0.0 0.00 0.01 0.01 87 1019.5
20260830223214 79 244 0.0 0.0 0.00 0.01 0.01 87 1019.6
20260830222708 80 110 0.0 0.0 0.00 0.01 0.01 90 1019.5
20260830222203 80 109 0.0 0.0 0.00 0.01 0.01 86 1019.6
20260830221659 81 109 0.0 0.0 0.00 0.01 0.01 84 1019.4
20260830221155 81 181 0.0 0.0 0.00 0.01 0.01 84 1019.7
20260830220650 82 189 0.0 0.0 0.00 0.01 0.01 87 1019.5
20260830220149 82 212 0.0 0.0 0.00 0.01 0.01 82 1019.6
20260830215648 82 179 0.0 0.0 0.00 0.01 0.01 81 1019.6
20260830215143 83 178 0.0 0.0 0.00 0.01 0.01 79 1019.5
20260830214638 83 158 0.0 0.0 0.00 0.01 0.01 77 1019.8
20260830214133 83 277 0.0 0.0 0.00 0.01 0.01 78 1019.7
20260830213632 83 40 0.0 0.0 0.00 0.01 0.01 78 1019.7
20260830213128 83 159 0.0 0.0 0.00 0.01 0.01 77 1019.6
20260830212623 83 172 0.0 0.0 0.00 0.01 0.01 75 1019.8
20260830212118 83 190 0.0 0.0 0.00 0.01 0.01 76 1019.7
20260830211613 83 193 0.0 0.0 0.00 0.01 0.01 76 1019.8
20260830211108 83 190 0.0 0.0 0.00 0.01 0.01 76 1019.8
20260830210603 83 174 0.0 0.0 0.00 0.01 0.01 79 1019.8
20260830205559 82 170 0.0 0.0 0.00 0.01 0.01 76 1019.8
20260830205055 83 262 0.0 0.0 0.00 0.01 0.01 75 1019.9
20260830204554 83 130 0.0 0.0 0.00 0.01 0.01 78 1019.7
20260830204053 82 147 0.0 0.0 0.00 0.01 0.01 79 1019.9
20260830203550 82 198 0.0 0.0 0.00 0.01 0.01 77 1019.7
20260830203050 82 207 0.0 0.0 0.00 0.01 0.01 78 1019.9
20260830202550 82 237 0.0 0.0 0.00 0.01 0.01 77 1019.9
20260830202046 82 244 0.0 0.0 0.00 0.01 0.01 77 1020.1
20260830201545 82 167 0.0 0.0 0.00 0.01 0.01 78 1020.1
20260830201040 81 160 0.0 0.0 0.00 0.01 0.01 76 1020.1
20260830200536 81 115 0.0 0.0 0.00 0.01 0.01 77 1020.4
20260830200034 81 227 0.0 0.0 0.00 0.01 0.01 76 1020.4
20260830195530 81 148 0.0 0.0 0.00 0.01 0.01 75 1020.6
20260830195028 81 240 0.0 0.0 0.00 0.01 0.01 76 1020.7
20260830194528 80 155 0.0 0.0 0.00 0.01 0.01 79 1020.8
20260830194027 80 162 0.0 0.0 0.00 0.01 0.01 75 1021.0
20260830193527 79 337 0.0 0.0 0.00 0.01 0.01 79 1021.2
20260830193028 78 139 0.0 0.0 0.00 0.01 0.01 78 1020.9
20260830192523 78 176 0.0 0.0 0.00 0.01 0.01 81 1020.9
20260830192018 77 208 0.0 0.0 0.00 0.01 0.01 86 1020.7
20260830191514 75 249 0.0 0.0 0.00 0.01 0.01 82 1020.5
20260830191009 76 185 0.0 0.0 0.00 0.01 0.01 86 1020.7
20260830190504 77 257 0.0 0.0 0.00 0.01 0.01 83 1021.0
20260830190003 79 239 0.0 3.0 0.00 0.01 0.01 79 1021.4
20260830185458 79 306 0.0 2.0 0.00 0.01 0.01 84 1021.3
20260830184953 80 233 0.0 0.0 0.07 0.01 0.01 91 1020.8
20260830184452 83 247 0.0 0.0 0.00 0.00 0.00 80 1021.0
20260830183947 85 290 0.0 0.0 0.00 0.00 0.00 71 1020.8
20260830183442 86 244 0.0 0.0 0.00 0.00 0.00 66 1020.7
20260830182937 87 269 0.0 2.0 0.00 0.00 0.00 65 1021.0
20260830182433 88 180 0.0 0.0 0.00 0.00 0.00 64 1020.8
20260830181929 88 239 0.0 0.0 0.00 0.00 0.00 64 1020.8
20260830181424 88 347 0.0 0.0 0.00 0.00 0.00 64 1021.0
20260830180919 87 298 0.0 0.0 0.00 0.00 0.00 68 1021.1
20260830180418 87 251 0.0 0.0 0.00 0.00 0.00 69 1021.0
20260830175917 87 290 0.0 0.0 0.00 0.00 0.00 71 1021.0
20260830175411 86 305 0.0 0.0 0.00 0.00 0.00 70 1021.1
20260830174906 87 306 0.0 0.0 0.00 0.00 0.00 71 1021.2
20260830174402 85 324 0.0 0.0 0.00 0.00 0.00 74 1021.6
20260830173857 84 246 0.0 0.0 0.00 0.00 0.00 74 1021.6
20260830173352 84 294 0.0 0.0 0.00 0.00 0.00 75 1021.5
20260830172848 84 247 0.0 0.0 0.00 0.00 0.00 72 1022.0
20260830172344 86 301 0.0 0.0 0.00 0.00 0.00 73 1021.8
20260830171839 86 304 0.0 1.0 0.00 0.00 0.00 70 1021.8
20260830171335 85 311 0.0 1.0 0.00 0.00 0.00 72 1021.8
20260830170830 85 249 0.0 0.0 0.00 0.00 0.00 72 1022.0
20260830170329 84 305 0.0 0.0 0.00 0.00 0.00 70 1022.0
20260830165823 85 232 0.0 2.0 0.00 0.00 0.00 71 1022.3
20260830165319 84 250 0.0 0.0 0.00 0.00 0.00 74 1022.2
20260830164815 85 312 0.0 0.0 0.00 0.00 0.00 72 1022.1
20260830164311 85 250 0.0 0.0 0.00 0.00 0.00 73 1022.2
20260830163808 85 250 0.0 1.0 0.00 0.00 0.00 70 1022.1
20260830163303 84 260 0.0 0.0 0.00 0.00 0.00 72 1022.2
20260830162757 84 241 0.0 0.0 0.00 0.00 0.00 73 1022.1
20260830162254 84 297 0.0 0.0 0.00 0.00 0.00 72 1022.2
20260830161749 84 357 0.0 0.0 0.00 0.00 0.00 73 1022.2
20260830161248 83 229 0.0 0.0 0.00 0.00 0.00 74 1022.2
20260830160744 83 303 0.0 0.0 0.00 0.00 0.00 75 1022.3
20260830160243 82 257 0.0 0.0 0.00 0.00 0.00 76 1022.2
20260830155740 83 327 0.0 0.0 0.00 0.00 0.00 74 1022.3
20260830155236 82 173 0.0 0.0 0.00 0.00 0.00 75 1022.3
20260830154735 82 271 0.0 0.0 0.00 0.00 0.00 77 1022.3
20260830154231 82 301 0.0 0.0 0.00 0.00 0.00 76 1022.2
20260830153728 81 240 0.0 0.0 0.00 0.00 0.00 76 1022.3
20260830153228 81 243 0.0 0.0 0.00 0.00 0.00 76 1022.3
20260830152727 81 255 0.0 0.0 0.00 0.00 0.00 77 1022.4
20260830152222 81 308 0.0 0.0 0.00 0.00 0.00 77 1022.3
20260830151716 81 297 0.0 0.0 0.00 0.00 0.00 78 1022.2
20260830151215 80 233 0.0 0.0 0.00 0.00 0.00 79 1022.3
20260830150711 80 170 0.0 0.0 0.00 0.00 0.00 79 1022.1
20260830150206 79 241 0.0 0.0 0.00 0.00 0.00 79 1022.2
20260830145706 78 164 0.0 0.0 0.00 0.00 0.00 80 1022.1
20260830145200 78 172 0.0 0.0 0.00 0.00 0.00 81 1022.5
20260830144655 78 268 0.0 0.0 0.00 0.00 0.00 80 1022.3
20260830144151 78 268 0.0 0.0 0.00 0.00 0.00 80 1022.2
20260830143642 78 241 0.0 0.0 0.00 0.00 0.00 82 1022.3
20260830143139 78 263 0.0 0.0 0.00 0.00 0.00 80 1022.3
20260830142635 78 281 0.0 0.0 0.00 0.00 0.00 80 1022.2
20260830142130 78 265 0.0 0.0 0.00 0.00 0.00 80 1022.0
20260830141625 78 253 0.0 0.0 0.00 0.00 0.00 79 1022.2
20260830141120 79 132 0.0 0.0 0.00 0.00 0.00 80 1022.1
20260830140615 78 155 0.0 0.0 0.00 0.00 0.00 84 1021.8
20260830140115 78 155 0.0 0.0 0.00 0.00 0.00 85 1022.1
20260830135615 77 155 0.0 0.0 0.00 0.00 0.00 84 1021.9
20260830135110 77 155 0.0 0.0 0.00 0.00 0.00 87 1021.9
20260830134606 76 155 0.0 0.0 0.00 0.00 0.00 87 1022.1
20260830134101 75 155 0.0 0.0 0.00 0.00 0.00 90 1022.0
20260830133557 74 155 0.0 0.0 0.00 0.00 0.00 92 1022.1
20260830133051 73 155 0.0 0.0 0.00 0.00 0.00 90 1022.2
20260830132548 73 155 0.0 0.0 0.00 0.00 0.00 91 1021.9
20260830132043 73 155 0.0 0.0 0.00 0.00 0.00 94 1022.0
20260830131542 71 155 0.0 0.0 0.00 0.00 0.00 95 1022.1
20260830131036 71 155 0.0 0.0 0.00 0.00 0.00 96 1022.1
20260830130532 70 155 0.0 0.0 0.00 0.00 0.00 96 1022.3
20260830130027 70 155 0.0 0.0 0.00 0.00 0.00 96 1022.3
20260830125521 69 155 0.0 0.0 0.00 0.00 0.00 96 1022.2
20260830125020 69 153 0.0 0.0 0.00 0.00 0.00 97 1022.1
20260830124514 68 153 0.0 0.0 0.00 0.00 0.00 97 1022.1
20260830124010 67 153 0.0 0.0 0.00 0.00 0.00 98 1022.2
20260830123508 67 153 0.0 0.0 0.00 0.00 0.00 98 1022.1
20260830123007 66 153 0.0 0.0 0.00 0.00 0.00 98 1022.0
20260830122504 65 153 0.0 0.0 0.00 0.00 0.00 99 1021.9
20260830121959 65 153 0.0 0.0 0.00 0.00 0.00 99 1022.0
20260830121455 65 153 0.0 0.0 0.00 0.00 0.00 99 1021.9
20260830120954 65 153 0.0 0.0 0.00 0.00 0.00 99 1022.1
20260830120450 64 153 0.0 0.0 0.00 0.00 0.00 99 1022.3
20260830115947 64 153 0.0 0.0 0.00 0.00 0.00 99 1022.1
20260830115442 64 153 0.0 0.0 0.00 0.00 0.00 99 1021.9
20260830114938 64 153 0.0 0.0 0.00 0.00 0.00 99 1021.9
20260830114434 63 153 0.0 0.0 0.00 0.00 0.00 99 1022.1
20260830113934 63 153 0.0 0.0 0.00 0.00 0.00 99 1021.9
20260830113429 63 153 0.0 0.0 0.00 0.00 0.00 99 1021.9
20260830112925 63 153 0.0 0.0 0.00 0.00 0.00 99 1022.2
20260830112420 63 153 0.0 0.0 0.00 0.00 0.00 99 1021.9
20260830111916 63 153 0.0 0.0 0.00 0.00 0.00 99 1022.0
20260830111412 63 153 0.0 0.0 0.00 0.00 0.00 99 1022.0
20260830110907 63 153 0.0 0.0 0.00 0.00 0.00 99 1022.0
20260830110403 63 153 0.0 0.0 0.00 0.00 0.00 99 1021.8
20260830105901 63 153 0.0 0.0 0.00 0.00 0.00 99 1021.8
20260830105359 63 153 0.0 0.0 0.00 0.00 0.00 99 1021.7
20260830104854 63 153 0.0 0.0 0.00 0.00 0.00 99 1021.9
20260830104351 63 153 0.0 0.0 0.00 0.00 0.00 99 1021.8
20260830103850 63 153 0.0 0.0 0.00 0.00 0.00 99 1021.8
20260830103346 63 153 0.0 0.0 0.00 0.00 0.00 99 1021.7
20260830102843 63 153 0.0 0.0 0.00 0.00 0.00 99 1021.8
20260830102340 63 153 0.0 0.0 0.00 0.00 0.00 99 1021.8
20260830101836 63 153 0.0 0.0 0.00 0.00 0.00 99 1021.9
20260830101331 63 153 0.0 0.0 0.00 0.00 0.00 99 1021.8
20260830100830 63 153 0.0 0.0 0.00 0.00 0.00 99 1021.7
20260830100324 63 153 0.0 0.0 0.00 0.00 0.00 99 1021.8
20260830095823 63 153 0.0 0.0 0.00 0.00 0.00 99 1021.8
20260830095320 63 153 0.0 0.0 0.00 0.00 0.00 99 1021.7
20260830094815 63 153 0.0 0.0 0.00 0.00 0.00 99 1021.9
20260830094312 63 153 0.0 0.0 0.00 0.00 0.00 99 1021.9
20260830093807 63 153 0.0 0.0 0.00 0.00 0.00 99 1021.7
20260830093302 63 153 0.0 0.0 0.00 0.00 0.00 99 1021.6
20260830092802 63 153 0.0 0.0 0.00 0.00 0.00 99 1021.7
20260830092259 63 153 0.0 0.0 0.00 0.00 0.00 99 1021.7
20260830091755 63 153 0.0 0.0 0.00 0.00 0.00 99 1021.8
20260830091254 63 153 0.0 0.0 0.00 0.00 0.00 99 1021.8
20260830090753 63 153 0.0 0.0 0.00 0.00 0.00 99 1021.8
20260830090249 63 153 0.0 0.0 0.00 0.00 0.00 99 1021.5
20260830085748 63 153 0.0 0.0 0.00 0.00 0.00 99 1021.5
20260830085244 63 153 0.0 0.0 0.00 0.00 0.00 99 1021.7
20260830084739 63 153 0.0 0.0 0.00 0.00 0.00 99 1021.7
20260830084235 64 153 0.0 0.0 0.00 0.00 0.00 99 1021.5
20260830083730 63 153 0.0 0.0 0.00 0.00 0.00 99 1021.7
20260830083226 63 153 0.0 0.0 0.00 0.00 0.00 99 1021.7
20260830082726 63 153 0.0 0.0 0.00 0.00 0.00 99 1021.7
20260830082221 64 153 0.0 0.0 0.00 0.00 0.00 99 1021.8
20260830081716 64 153 0.0 0.0 0.00 0.00 0.00 99 1021.5
20260830081215 64 153 0.0 0.0 0.00 0.00 0.00 99 1021.6
20260830080709 64 153 0.0 0.0 0.00 0.00 0.00 99 1021.8
20260830080206 64 153 0.0 0.0 0.00 0.00 0.00 99 1021.9
20260830075704 64 153 0.0 0.0 0.00 0.00 0.00 99 1021.7
20260830075201 64 153 0.0 0.0 0.00 0.00 0.00 99 1021.7
20260830074656 64 153 0.0 0.0 0.00 0.00 0.00 99 1021.6
20260830074152 64 153 0.0 0.0 0.00 0.00 0.00 99 1021.7
20260830073648 64 153 0.0 0.0 0.00 0.00 0.00 99 1021.7
20260830073143 64 153 0.0 0.0 0.00 0.00 0.00 99 1021.6
20260830072638 64 153 0.0 0.0 0.00 0.00 0.00 99 1021.6
20260830072138 65 153 0.0 0.0 0.00 0.00 0.00 99 1021.7
20260830071633 65 153 0.0 0.0 0.00 0.00 0.00 99 1021.6
20260830071131 65 153 0.0 0.0 0.00 0.00 0.00 99 1021.7
20260830070626 65 153 0.0 0.0 0.00 0.00 0.00 99 1021.7
20260830070122 65 153 0.0 0.0 0.00 0.00 0.00 99 1021.7
20260830065620 65 153 0.0 0.0 0.00 0.00 0.00 99 1021.6
20260830065119 65 153 0.0 0.0 0.00 0.00 0.00 99 1021.6
20260830064613 65 153 0.0 0.0 0.00 0.00 0.00 99 1021.6
20260830064109 65 153 0.0 0.0 0.00 0.00 0.00 99 1021.6
20260830063603 65 153 0.0 0.0 0.00 0.00 0.00 99 1021.9
20260830063102 65 153 0.0 0.0 0.00 0.00 0.00 99 1021.6
20260830062556 65 153 0.0 0.0 0.00 0.00 0.00 99 1021.8
20260830062051 65 153 0.0 0.0 0.00 0.00 0.00 99 1021.8
20260830061545 65 153 0.0 0.0 0.00 0.00 0.00 99 1021.8
20260830061042 65 153 0.0 0.0 0.00 0.00 0.00 99 1021.7
20260830060538 65 153 0.0 0.0 0.00 0.00 0.00 99 1021.8
20260830060035 65 153 0.0 0.0 0.00 0.00 0.00 99 1021.8
20260830055530 65 153 0.0 0.0 0.00 0.00 0.00 99 1021.9
20260830055026 66 153 0.0 0.0 0.00 0.00 0.00 99 1022.0
20260830054521 66 153 0.0 0.0 0.00 0.00 0.00 99 1022.0
20260830054016 66 153 0.0 0.0 0.00 0.00 0.00 99 1021.9
20260830053512 66 153 0.0 0.0 0.00 0.00 0.00 99 1021.9
20260830053011 66 153 0.0 0.0 0.00 0.00 0.00 99 1021.9
20260830052507 66 153 0.0 0.0 0.00 0.00 0.00 99 1021.9
20260830052007 66 153 0.0 0.0 0.00 0.00 0.00 99 1022.2
20260830051502 66 153 0.0 0.0 0.00 0.00 0.00 99 1022.0